This is the latest recevied weather packets stored in our database for station/object OK5TVR-5. If no packets are shown the sender has not sent any weather packets the latest 10 day(s).
| Time | Temp. | Humidity | Pressure | Rain* | Wind** | Luminosity | Snow |
|---|---|---|---|---|---|---|---|
| 1788497541 | 14.44° C | 89% | 1012 hPa | 0.25 mm | - | 5 W/m² | - |
| 1788496640 | 14.44° C | 90% | 1012.1 hPa | 0 mm | - | 2 W/m² | - |
| 1788495740 | 14.44° C | 89% | 1011.9 hPa | 0 mm | - | 1 W/m² | - |
| 1788494840 | 13.89° C | 90% | 1012 hPa | 0 mm | - | 0 W/m² | - |
| 1788493940 | 13.89° C | 93% | 1011.9 hPa | 0 mm | - | 0 W/m² | - |
| 1788493040 | 14.44° C | 88% | 1012 hPa | 0 mm | - | 0 W/m² | - |
| 1788492140 | 14.44° C | 89% | 1012.1 hPa | 0 mm | - | 0 W/m² | - |
| 1788491240 | 15° C | 88% | 1012 hPa | 0 mm | - | 0 W/m² | - |
| 1788490340 | 15° C | 87% | 1012.1 hPa | 0 mm | - | 0 W/m² | - |
| 1788489440 | 15.56° C | 88% | 1012.1 hPa | 0 mm | - | 0 W/m² | - |
| 1788488540 | 15.56° C | 87% | 1012.2 hPa | 0 mm | - | 0 W/m² | - |
| 1788487640 | 15.56° C | 87% | 1012.3 hPa | 0 mm | - | 0 W/m² | - |
| 1788486740 | 15.56° C | 87% | 1012.2 hPa | 0 mm | - | 0 W/m² | - |
| 1788485840 | 15.56° C | 86% | 1012.2 hPa | 0 mm | - | 0 W/m² | - |
| 1788484940 | 16.11° C | 86% | 1012.2 hPa | 0 mm | - | 0 W/m² | - |
| 1788484040 | 16.11° C | 88% | 1012.3 hPa | 0 mm | - | 0 W/m² | - |
| 1788483140 | 16.11° C | 88% | 1012.5 hPa | 0 mm | - | 0 W/m² | - |
| 1788482240 | 16.11° C | 89% | 1012.4 hPa | 0 mm | - | 0 W/m² | - |
| 1788481340 | 16.67° C | 88% | 1012.4 hPa | 0 mm | - | 0 W/m² | - |
| 1788480440 | 16.11° C | 91% | 1012.7 hPa | 0 mm | - | 0 W/m² | - |
| 1788479540 | 16.67° C | 88% | 1012.6 hPa | 0 mm | - | 0 W/m² | - |
| 1788478640 | 16.11° C | 88% | 1012.9 hPa | 0 mm | - | 0 W/m² | - |
| 1788477740 | 16.11° C | 88% | 1013.1 hPa | 0 mm | - | 0 W/m² | - |
| 1788476840 | 16.67° C | 88% | 1013.1 hPa | 0 mm | - | 0 W/m² | - |
| 1788475940 | 16.11° C | 89% | 1013 hPa | 0 mm | - | 0 W/m² | - |
* Rain latest hour (hover to see other rain measurements)
** Current wind speed in m/s (hover to see current wind gust speed)